Location: Baia Mare
(47.6567°N, 23.5850°E)
Time: 09:13:38
(UTC+03:00)

ISS - Pass Details

Date: 14 July 2018
Orbit: 402 x 408 km, 51.6° (Epoch: 16 July)

Event Time Altitude Azimuth Distance (km) Brightness Sun altitude
Exits shadow 03:40:22 - 278° (W) 1,606 -1.0 -14.8°
Reaches altitude 10° 03:40:44 10° 280° (W) 1,468 -1.2 -14.8°
Maximum altitude 03:43:52 41° 353° (N) 600 -2.6 -14.5°
Drops below altitude 10° 03:47:02 10° 66° (ENE) 1,472 -0.1 -14.2°
Sets 03:49:12 0° 74° (ENE) 2,334 0.8 -14.1°
